Location: Aurora Center
(43.5271°N, 98.5894°W)
Time: 15:16:11
(UTC-05:00)

Envisat - Pass Details

Date: 27 June 2024
Orbit: 762 x 764 km, 98.3° (Epoch: 12 July)

Event Time Altitude Azimuth Distance (km) Brightness Sun altitude
Rises 04:31:47 0° 17° (NNE) 3,235 7.6 -12.1°
Reaches altitude 10° 04:34:09 10° 22° (NNE) 2,304 6.7 -11.9°
Maximum altitude 04:39:07 55° 100° (E) 914 3.6 -11.3°
Drops below altitude 10° 04:44:04 10° 178° (S) 2,288 5.0 -10.7°
Enters shadow 04:45:13 - 181° (S) 2,738 5.4 -10.5°
